Starlink 3703

operational
NORAD ID: 52101 Int'l Des: 2022-029 Owner: SPXS Country: US Constellation: starlink
LEOCIRCULAR

Starlink 3703について

説明を読み込み中...

リアルタイム位置

3D地球を読み込み中...

次回通過

高度履歴

Altitude vs Time

uPlot chart will show altitude changes over time

軌道要素

1 52101U 22029P 25305.30005470 .00000496 00000-0 49269-4 0 9991
2 52101 53.2182 305.6757 0001399 94.6804 265.4347 15.08834664201265
Epoch: Nov 1, 2025 • Age: 17 hours

現在のステータス

高度 544.8 km
速度 7.59 km/s
衛星直下点 -16.87°S, 121.09°W
打ち上げ日 Mar 19, 2022
運用期間 3.6 years
タイプ internet

技術仕様

分類 Payload
質量 297.00 kg
乾燥質量 275.00 kg
総質量 297.00 kg
長さ 0.20 m
直径 2.80 m
スパン 9.00 m
形状 Box + pan
製造者 SPXS
バスタイプ Starlink
フェーズステータス In Orbit
所有者/国 SPXS/US

大規模コンステレーション

Loading constellations...